GIA812 WIMM-WMKK

Flight info

Callsign GIA812
Flight time 0h 45m
Altitude 25000
Route PUGER2A PUGER PUGER3J
Aircraft B38M/M-SDE1FGHILORVWXY/HB1

Departure

Time 2026-05-07 13:57
Airport Kualanamu International Airport (WIMM)

Arrival

Time 2026-05-07 14:43
Airport Kuala Lumpur International Airport (WMKK)
Time Latitude Longitude Altitude Speed Heading
2026-05-07 13:33 3.63901 98.87833 28 ft 0 kts 224°
2026-05-07 13:40 3.63905 98.87837 28 ft 3 kts 224°
2026-05-07 13:41 3.63919 98.87850 28 ft 3 kts 224°
2026-05-07 13:41 3.63930 98.87859 28 ft 0 kts 234°
2026-05-07 13:41 3.63933 98.87865 4 ft 3 kts 237°
2026-05-07 13:41 3.63937 98.87883 27 ft 3 kts 302°
2026-05-07 13:42 3.63927 98.87899 27 ft 2 kts 303°
2026-05-07 13:42 3.63925 98.87903 27 ft 0 kts 316°
2026-05-07 13:46 3.63926 98.87902 27 ft 1 kts 316°
2026-05-07 13:47 3.63933 98.87895 27 ft 3 kts 316°
2026-05-07 13:47 3.63944 98.87885 26 ft 0 kts 316°
2026-05-07 13:49 3.63945 98.87885 26 ft 0 kts 318°
2026-05-07 13:49 3.63952 98.87884 39 ft 2 kts 353°
2026-05-07 13:49 3.63963 98.87895 27 ft 4 kts 54°
2026-05-07 13:49 3.63994 98.87938 28 ft 11 kts 51°
2026-05-07 13:50 3.64040 98.88023 28 ft 17 kts 70°
2026-05-07 13:50 3.64110 98.88113 28 ft 16 kts 19°
2026-05-07 13:50 3.64193 98.88071 28 ft 15 kts 309°
2026-05-07 13:50 3.64274 98.87992 28 ft 16 kts 313°
2026-05-07 13:51 3.64255 98.87915 28 ft 13 kts 220°
2026-05-07 13:51 3.64186 98.87843 28 ft 16 kts 230°
2026-05-07 13:51 3.64115 98.87749 28 ft 17 kts 224°
2026-05-07 13:51 3.64017 98.87673 28 ft 19 kts 220°
2026-05-07 13:52 3.63920 98.87574 28 ft 21 kts 229°
2026-05-07 13:52 3.63810 98.87469 28 ft 23 kts 220°
2026-05-07 13:52 3.63692 98.87357 29 ft 24 kts 226°
2026-05-07 13:52 3.63630 98.87207 29 ft 24 kts 269°
2026-05-07 13:53 3.63543 98.87097 29 ft 19 kts 233°
2026-05-07 13:53 3.63448 98.87001 29 ft 20 kts 223°
2026-05-07 13:53 3.63341 98.86900 29 ft 22 kts 227°
2026-05-07 13:53 3.63237 98.86783 28 ft 23 kts 227°
2026-05-07 13:54 3.63122 98.86662 28 ft 24 kts 225°
2026-05-07 13:54 3.62999 98.86544 29 ft 25 kts 223°
2026-05-07 13:54 3.62871 98.86418 29 ft 26 kts 225°
2026-05-07 13:54 3.62746 98.86280 29 ft 27 kts 227°
2026-05-07 13:55 3.62615 98.86147 29 ft 28 kts 224°
2026-05-07 13:55 3.62504 98.85996 28 ft 25 kts 262°
2026-05-07 13:55 3.62602 98.85894 29 ft 19 kts
2026-05-07 13:55 3.62628 98.85910 28 ft 0 kts 47°
2026-05-07 13:56 3.62778 98.86059 31 ft 80 kts 43°
2026-05-07 13:57 3.63411 98.86683 29 ft 170 kts 42°
2026-05-07 13:57 3.64439 98.87612 182 ft 236 kts 41°
2026-05-07 13:57 3.65886 98.88908 711 ft 292 kts 41°
2026-05-07 13:57 3.67286 98.90194 2839 ft 261 kts 49°
2026-05-07 13:58 3.68015 98.91719 4502 ft 230 kts 77°
2026-05-07 13:58 3.68109 98.93199 6111 ft 196 kts 97°
2026-05-07 13:58 3.67930 98.94469 7281 ft 180 kts 98°
2026-05-07 13:58 3.67767 98.95713 7934 ft 189 kts 97°
2026-05-07 13:59 3.67602 98.97075 8478 ft 205 kts 97°
2026-05-07 13:59 3.67424 98.98550 9027 ft 223 kts 97°
2026-05-07 13:59 3.67228 99.00175 9597 ft 241 kts 97°
2026-05-07 13:59 3.67021 99.01880 10108 ft 259 kts 97°
2026-05-07 14:00 3.66796 99.03738 10603 ft 278 kts 97°
2026-05-07 14:00 3.66556 99.05721 11063 ft 296 kts 97°
2026-05-07 14:00 3.66299 99.07837 11490 ft 315 kts 97°
2026-05-07 14:00 3.65967 99.10060 11952 ft 330 kts 101°
2026-05-07 14:01 3.65412 99.12322 12611 ft 338 kts 104°
2026-05-07 14:01 3.64837 99.14628 13340 ft 343 kts 102°
2026-05-07 14:01 3.64342 99.16979 14039 ft 347 kts 101°
2026-05-07 14:01 3.63860 99.19363 14697 ft 351 kts 101°
2026-05-07 14:02 3.63341 99.21758 15353 ft 354 kts 102°
2026-05-07 14:02 3.62802 99.24175 16005 ft 358 kts 102°
2026-05-07 14:02 3.62269 99.26622 16653 ft 361 kts 102°
2026-05-07 14:02 3.61742 99.29081 17287 ft 364 kts 102°
2026-05-07 14:03 3.61207 99.31558 18091 ft 362 kts 102°
2026-05-07 14:03 3.60673 99.34007 18792 ft 359 kts 102°
2026-05-07 14:03 3.60142 99.36449 19481 ft 358 kts 102°
2026-05-07 14:03 3.59616 99.38879 20154 ft 357 kts 102°
2026-05-07 14:04 3.59092 99.41297 20856 ft 355 kts 102°
2026-05-07 14:04 3.58566 99.43719 21555 ft 354 kts 102°
2026-05-07 14:04 3.58043 99.46125 22260 ft 353 kts 102°
2026-05-07 14:04 3.57521 99.48529 22991 ft 352 kts 102°
2026-05-07 14:05 3.57011 99.50907 23665 ft 350 kts 99°
2026-05-07 14:05 3.56876 99.53332 24245 ft 349 kts 88°
2026-05-07 14:05 3.56987 99.55784 24410 ft 360 kts 88°
2026-05-07 14:05 3.57028 99.58355 24469 ft 375 kts 91°
2026-05-07 14:06 3.56850 99.60945 24782 ft 383 kts 98°
2026-05-07 14:06 3.56290 99.63639 24840 ft 398 kts 104°
2026-05-07 14:06 3.55501 99.66351 24842 ft 413 kts 107°
2026-05-07 14:06 3.54668 99.69150 24844 ft 426 kts 104°
2026-05-07 14:07 3.53973 99.72083 24842 ft 438 kts 102°
2026-05-07 14:07 3.53338 99.75070 24842 ft 449 kts 102°
2026-05-07 14:07 3.52602 99.78148 24844 ft 460 kts 104°
2026-05-07 14:07 3.51783 99.81322 24841 ft 469 kts 104°
2026-05-07 14:08 3.50997 99.84511 24843 ft 475 kts 103°
2026-05-07 14:08 3.50252 99.87690 24843 ft 477 kts 103°
2026-05-07 14:08 3.49483 99.90925 24841 ft 478 kts 103°
2026-05-07 14:08 3.48688 99.94153 24840 ft 478 kts 103°
2026-05-07 14:09 3.47891 99.97398 24847 ft 478 kts 103°
2026-05-07 14:09 3.47113 100.00630 24845 ft 478 kts 103°
2026-05-07 14:09 3.46338 100.03858 24845 ft 479 kts 103°
2026-05-07 14:09 3.45551 100.07097 24842 ft 478 kts 103°
2026-05-07 14:10 3.44763 100.10327 24846 ft 478 kts 103°
2026-05-07 14:10 3.43977 100.13569 24848 ft 478 kts 103°
2026-05-07 14:10 3.43173 100.16789 24846 ft 478 kts 104°
2026-05-07 14:10 3.42325 100.20017 24846 ft 478 kts 104°
2026-05-07 14:11 3.41482 100.23242 24846 ft 479 kts 104°
2026-05-07 14:11 3.40665 100.26471 24846 ft 479 kts 103°
2026-05-07 14:11 3.39607 100.29628 24848 ft 480 kts 115°
2026-05-07 14:11 3.37935 100.32523 24850 ft 481 kts 121°
2026-05-07 14:12 3.36141 100.35347 24851 ft 480 kts 121°
2026-05-07 14:12 3.34344 100.38164 24835 ft 481 kts 121°
2026-05-07 14:12 3.32592 100.40998 24500 ft 478 kts 118°
2026-05-07 14:12 3.30975 100.43876 23832 ft 471 kts 117°
2026-05-07 14:13 3.29404 100.46735 22866 ft 464 kts 117°
2026-05-07 14:13 3.27900 100.49518 21870 ft 458 kts 116°
2026-05-07 14:13 3.26415 100.52308 20890 ft 451 kts 116°
2026-05-07 14:13 3.24970 100.55065 19953 ft 444 kts 116°
2026-05-07 14:14 3.23558 100.57792 19035 ft 438 kts 116°
2026-05-07 14:14 3.22215 100.60458 18779 ft 417 kts 119°
2026-05-07 14:14 3.20633 100.62821 18504 ft 403 kts 125°
2026-05-07 14:14 3.18933 100.65047 18029 ft 402 kts 126°
2026-05-07 14:15 3.17310 100.67287 17665 ft 391 kts 122°
2026-05-07 14:15 3.15920 100.69575 17476 ft 378 kts 118°
2026-05-07 14:15 3.14615 100.71788 17178 ft 370 kts 120°
2026-05-07 14:15 3.13240 100.73940 16779 ft 366 kts 122°
2026-05-07 14:16 3.11843 100.76063 16331 ft 364 kts 122°
2026-05-07 14:16 3.10484 100.78191 15855 ft 363 kts 121°
2026-05-07 14:16 3.09123 100.80366 15366 ft 363 kts 121°
2026-05-07 14:16 3.07791 100.82472 14896 ft 364 kts 121°
2026-05-07 14:17 3.06426 100.84607 14422 ft 364 kts 122°
2026-05-07 14:17 3.05059 100.86749 13945 ft 365 kts 122°
2026-05-07 14:17 3.03700 100.88892 13454 ft 366 kts 122°
2026-05-07 14:17 3.02333 100.91045 12920 ft 367 kts 122°
2026-05-07 14:18 3.00963 100.93198 12407 ft 368 kts 122°
2026-05-07 14:18 2.99586 100.95362 11895 ft 368 kts 122°
2026-05-07 14:18 2.98208 100.97528 11403 ft 369 kts 122°
2026-05-07 14:18 2.96831 100.99694 10928 ft 370 kts 122°
2026-05-07 14:19 2.95450 101.01867 10444 ft 370 kts 122°
2026-05-07 14:19 2.94066 101.04041 9962 ft 371 kts 121°
2026-05-07 14:19 2.93126 101.05519 9621 ft 372 kts 122°
2026-05-07 14:19 2.91754 101.07676 9074 ft 374 kts 122°
2026-05-07 14:20 2.89888 101.10610 8386 ft 375 kts 122°
2026-05-07 14:20 2.88960 101.12068 8109 ft 372 kts 122°
2026-05-07 14:20 2.87576 101.14244 7997 ft 373 kts 122°
2026-05-07 14:20 2.86174 101.16446 7999 ft 374 kts 122°
2026-05-07 14:21 2.84775 101.18645 8001 ft 376 kts 122°
2026-05-07 14:21 2.83454 101.20721 8002 ft 375 kts 122°
2026-05-07 14:21 2.82056 101.22917 7997 ft 369 kts 122°
2026-05-07 14:21 2.80783 101.24915 7976 ft 309 kts 122°
2026-05-07 14:22 2.79376 101.27123 7982 ft 259 kts 122°
2026-05-07 14:22 2.78747 101.28115 7985 ft 251 kts 122°
2026-05-07 14:22 2.77833 101.29553 7977 ft 239 kts 122°
2026-05-07 14:22 2.76958 101.30928 7977 ft 228 kts 122°
2026-05-07 14:23 2.76120 101.32243 7972 ft 220 kts 122°
2026-05-07 14:23 2.75298 101.33535 7979 ft 220 kts 122°
2026-05-07 14:23 2.74482 101.34817 7981 ft 218 kts 122°
2026-05-07 14:23 2.73664 101.36102 7975 ft 218 kts 122°
2026-05-07 14:24 2.72849 101.37382 7984 ft 218 kts 122°
2026-05-07 14:24 2.72038 101.38656 7984 ft 218 kts 122°
2026-05-07 14:24 2.71220 101.39940 7986 ft 218 kts 122°
2026-05-07 14:24 2.70405 101.41220 7984 ft 218 kts 122°
2026-05-07 14:25 2.69592 101.42497 7980 ft 218 kts 122°
2026-05-07 14:25 2.68779 101.43775 7989 ft 217 kts 122°
2026-05-07 14:25 2.67967 101.45049 7989 ft 217 kts 122°
2026-05-07 14:25 2.67155 101.46324 7986 ft 218 kts 122°
2026-05-07 14:26 2.66342 101.47602 7985 ft 218 kts 122°
2026-05-07 14:26 2.65537 101.48866 7986 ft 218 kts 122°
2026-05-07 14:26 2.64721 101.50146 7987 ft 218 kts 122°
2026-05-07 14:26 2.63909 101.51422 7986 ft 218 kts 122°
2026-05-07 14:27 2.63134 101.52724 7985 ft 217 kts 110°
2026-05-07 14:27 2.62939 101.54209 8000 ft 218 kts 90°
2026-05-07 14:27 2.62898 101.55717 7997 ft 217 kts 108°
2026-05-07 14:27 2.62079 101.56961 8005 ft 219 kts 137°
2026-05-07 14:28 2.60940 101.57964 7852 ft 218 kts 137°
2026-05-07 14:28 2.59859 101.59026 7651 ft 218 kts 132°
2026-05-07 14:28 2.59243 101.60376 7445 ft 218 kts 96°
2026-05-07 14:28 2.59208 101.61888 7244 ft 218 kts 94°
2026-05-07 14:29 2.58943 101.63379 7047 ft 218 kts 107°
2026-05-07 14:29 2.58479 101.64822 6848 ft 218 kts 109°
2026-05-07 14:29 2.57982 101.66257 6658 ft 218 kts 110°
2026-05-07 14:29 2.57493 101.67672 6474 ft 218 kts 110°
2026-05-07 14:30 2.57000 101.69110 6286 ft 219 kts 110°
2026-05-07 14:30 2.56512 101.70549 6086 ft 219 kts 110°
2026-05-07 14:30 2.56021 101.71991 5894 ft 218 kts 110°
2026-05-07 14:30 2.55532 101.73426 5657 ft 220 kts 110°
2026-05-07 14:31 2.55024 101.74912 5242 ft 230 kts 110°
2026-05-07 14:31 2.54495 101.76453 4827 ft 238 kts 110°
2026-05-07 14:31 2.53953 101.78041 4427 ft 244 kts 110°
2026-05-07 14:31 2.53516 101.79700 4017 ft 247 kts 99°
2026-05-07 14:32 2.53417 101.81354 3565 ft 231 kts 87°
2026-05-07 14:32 2.53658 101.82892 3121 ft 219 kts 75°
2026-05-07 14:32 2.54218 101.84238 2968 ft 200 kts 60°
2026-05-07 14:32 2.55058 101.85327 2972 ft 203 kts 45°
2026-05-07 14:33 2.56069 101.86259 2970 ft 194 kts 51°
2026-05-07 14:33 2.56869 101.87398 2981 ft 198 kts 65°
2026-05-07 14:33 2.57341 101.88661 2979 ft 196 kts 79°
2026-05-07 14:33 2.57476 101.90012 2978 ft 192 kts 94°
2026-05-07 14:34 2.57248 101.91309 2985 ft 195 kts 115°
2026-05-07 14:34 2.56424 101.92389 3042 ft 196 kts 143°
2026-05-07 14:34 2.55177 101.92899 3121 ft 202 kts 171°
2026-05-07 14:34 2.53786 101.92752 3072 ft 203 kts 199°
2026-05-07 14:35 2.52624 101.91947 3014 ft 206 kts 227°
2026-05-07 14:35 2.51986 101.90680 3001 ft 207 kts 256°
2026-05-07 14:35 2.52026 101.89353 2986 ft 178 kts 285°
2026-05-07 14:35 2.52425 101.88203 2983 ft 174 kts 290°
2026-05-07 14:36 2.52738 101.87092 2965 ft 157 kts 272°
2026-05-07 14:36 2.53143 101.86107 2974 ft 158 kts 312°
2026-05-07 14:36 2.53944 101.85372 2974 ft 155 kts 311°
2026-05-07 14:36 2.54571 101.84559 2962 ft 137 kts 306°
2026-05-07 14:37 2.55118 101.83784 2976 ft 138 kts 305°
2026-05-07 14:37 2.56183 101.82256 2981 ft 133 kts 304°
2026-05-07 14:37 2.56782 101.81541 2973 ft 143 kts 326°
2026-05-07 14:38 2.57698 101.80966 3006 ft 164 kts 326°
2026-05-07 14:38 2.58650 101.80320 3004 ft 166 kts 326°
2026-05-07 14:38 2.59613 101.79670 2998 ft 168 kts 327°
2026-05-07 14:38 2.60528 101.79056 2973 ft 146 kts 327°
2026-05-07 14:39 2.61328 101.78517 2982 ft 137 kts 327°
2026-05-07 14:39 2.62105 101.77998 2977 ft 131 kts 327°
2026-05-07 14:39 2.62860 101.77494 2915 ft 136 kts 327°
2026-05-07 14:39 2.63651 101.76964 2630 ft 132 kts 327°
2026-05-07 14:40 2.64400 101.76461 2377 ft 132 kts 327°
2026-05-07 14:40 2.65147 101.75961 2083 ft 126 kts 327°
2026-05-07 14:40 2.65883 101.75467 1789 ft 129 kts 327°
2026-05-07 14:40 2.66624 101.74971 1490 ft 127 kts 327°
2026-05-07 14:41 2.67344 101.74489 1156 ft 123 kts 327°
2026-05-07 14:41 2.68048 101.74016 856 ft 121 kts 327°
2026-05-07 14:41 2.68741 101.73551 562 ft 120 kts 328°
2026-05-07 14:41 2.69418 101.73100 393 ft 116 kts 327°
2026-05-07 14:42 2.70122 101.72627 327 ft 121 kts 327°
2026-05-07 14:42 2.70820 101.72161 185 ft 119 kts 327°
2026-05-07 14:42 2.71519 101.71692 87 ft 121 kts 326°
2026-05-07 14:42 2.72153 101.71271 55 ft 81 kts 327°
2026-05-07 14:43 2.72430 101.71091 56 ft 26 kts 327°
2026-05-07 14:43 2.72577 101.70997 55 ft 25 kts 333°
2026-05-07 14:43 2.72711 101.70890 52 ft 26 kts 319°
2026-05-07 14:43 2.72881 101.70775 57 ft 33 kts 327°
2026-05-07 14:44 2.73102 101.70690 52 ft 35 kts
2026-05-07 14:44 2.73276 101.70738 57 ft 9 kts 83°
2026-05-07 14:44 2.73250 101.70765 57 ft 10 kts 142°
2026-05-07 14:44 2.73237 101.70778 59 ft 0 kts 134°
2026-05-07 14:45 2.73195 101.70804 53 ft 13 kts 150°
2026-05-07 14:45 2.73079 101.70870 51 ft 25 kts 149°
2026-05-07 14:45 2.72907 101.70967 53 ft 33 kts 152°
2026-05-07 14:45 2.72706 101.71110 56 ft 34 kts 132°
2026-05-07 14:46 2.72632 101.71229 56 ft 0 kts 68°
2026-05-07 14:46 2.72641 101.71242 54 ft 5 kts 53°
2026-05-07 14:46 2.72649 101.71249 57 ft 3 kts 37°
2026-05-07 14:46 2.72689 101.71245 57 ft 9 kts 334°
2026-05-07 14:47 2.72764 101.71192 58 ft 17 kts 321°
2026-05-07 14:47 2.72882 101.71108 53 ft 24 kts 331°
2026-05-07 14:47 2.73040 101.71014 54 ft 29 kts 325°
2026-05-07 14:47 2.73209 101.70882 55 ft 32 kts 321°
2026-05-07 14:48 2.73403 101.70750 52 ft 35 kts 328°
2026-05-07 14:48 2.73614 101.70616 59 ft 37 kts 324°
2026-05-07 14:48 2.73820 101.70454 55 ft 38 kts 321°
2026-05-07 14:48 2.74048 101.70312 53 ft 39 kts 328°
2026-05-07 14:49 2.74278 101.70161 58 ft 40 kts 326°
2026-05-07 14:49 2.74451 101.70078 59 ft 5 kts 37°
2026-05-07 14:49 2.74463 101.70099 53 ft 7 kts 62°
2026-05-07 14:49 2.74497 101.70148 59 ft 11 kts 49°
2026-05-07 14:50 2.74542 101.70223 53 ft 14 kts 62°
2026-05-07 14:50 2.74613 101.70305 59 ft 17 kts 55°
2026-05-07 14:50 2.74688 101.70418 57 ft 21 kts 58°
2026-05-07 14:50 2.74770 101.70539 53 ft 21 kts 48°
2026-05-07 14:51 2.74858 101.70665 57 ft 23 kts 70°
2026-05-07 14:51 2.74928 101.70794 53 ft 19 kts 53°
2026-05-07 14:51 2.75000 101.70889 54 ft 15 kts 47°
2026-05-07 14:51 2.75031 101.70974 58 ft 12 kts 90°
2026-05-07 14:52 2.74990 101.71042 58 ft 12 kts 133°
2026-05-07 14:52 2.74931 101.71092 53 ft 9 kts 140°
2026-05-07 14:52 2.74925 101.71097 53 ft 1 kts 144°
2026-05-07 14:52 2.74900 101.71114 58 ft 7 kts 145°
2026-05-07 14:53 2.74838 101.71144 55 ft 12 kts 160°
2026-05-07 14:53 2.74781 101.71174 53 ft 0 kts 146°
2026-05-07 14:53 2.74773 101.71181 58 ft 4 kts 140°
2026-05-07 14:53 2.74756 101.71196 58 ft 0 kts 141°